FW6918 Weather Reports


time (UTC)temp
C
wind
direction
speed
KPH
gust
KPH
rain 1hr
cm
rain 24hr
cm
rain mn
cm
humidity
%
barometer
mb
20260505041526 -1 355 8.0 11.3 0.00 0.00 0.00 68 1012.6
20260505040036 -1 350 8.0 12.9 0.00 0.00 0.00 68 1012.3
20260505034608 0 334 8.0 12.9 0.00 0.00 0.00 66 1012.2
20260505033014 0 336 9.7 16.1 0.00 0.00 0.00 64 1012.0
20260505031524 1 340 11.3 19.3 0.00 0.00 0.00 61 1011.8
20260505030037 2 341 14.5 27.4 0.00 0.00 0.00 58 1011.7
20260505024534 2 360 19.3 29.0 0.00 0.00 0.00 58 1011.7
20260505023045 3 360 22.5 33.8 0.00 0.00 0.00 58 1011.5
20260505021600 3 338 22.5 33.8 0.00 0.00 0.00 57 1011.5
20260505020012 3 342 22.5 33.8 0.00 0.00 0.00 57 1011.3
20260505014535 3 344 20.9 33.8 0.00 0.00 0.00 59 1011.3
20260505013041 3 323 24.1 33.8 0.00 0.00 0.00 59 1011.2
20260505011556 3 342 24.1 35.4 0.00 0.00 0.00 57 1011.1
20260505010005 4 346 22.5 32.2 0.00 0.00 0.00 56 1010.9
20260505004533 4 355 22.5 32.2 0.00 0.00 0.00 54 1010.7
20260505003030 5 355 24.1 35.4 0.00 0.00 0.00 52 1010.7
20260505001546 5 331 22.5 37.0 0.00 0.00 0.00 52 1010.6
20260505000110 5 355 24.1 35.4 0.00 0.00 0.00 50 1010.5
20260505000003 5 324 24.1 35.4 0.00 0.00 0.00 50 1010.3
20260504234518 5 335 25.7 35.4 0.00 0.00 0.00 50 1010.3
20260504233031 5 333 27.4 40.2 0.00 0.00 0.00 50 1010.3
20260504231554 5 344 24.1 35.4 0.00 0.00 0.00 53 1009.9
20260504230057 5 339 25.7 37.0 0.00 0.00 0.00 53 1009.8
20260504224507 5 340 24.1 35.4 0.00 0.00 0.00 52 1009.6
20260504223021 5 336 24.1 38.6 0.00 0.00 0.00 52 1009.6
20260504221547 5 338 24.1 38.6 0.00 0.00 0.00 51 1009.6
20260504220051 5 329 24.1 37.0 0.00 0.00 0.00 51 1009.5
20260504214603 5 335 24.1 33.8 0.00 0.00 0.00 50 1009.4
20260504213030 6 332 24.1 41.8 0.00 0.00 0.00 49 1009.4
20260504211529 6 317 32.2 40.2 0.00 0.00 0.00 51 1009.4
20260504210047 6 344 25.7 38.6 0.00 0.00 0.00 51 1009.4
20260504204549 5 330 29.0 43.5 0.00 0.00 0.00 52 1009.3
20260504203007 6 340 27.4 37.0 0.00 0.00 0.00 49 1008.9
20260504201516 6 325 29.0 38.6 0.00 0.00 0.00 47 1008.8
20260504200031 6 323 27.4 40.2 0.00 0.00 0.00 48 1008.8
20260504194550 6 333 22.5 38.6 0.00 0.00 0.00 49 1008.7
20260504193057 5 333 27.4 41.8 0.00 0.00 0.00 49 1008.7
20260504191509 6 325 24.1 33.8 0.00 0.00 0.00 47 1008.5
20260504190025 5 333 25.7 38.6 0.00 0.00 0.00 47 1008.5
20260504184549 6 324 27.4 40.2 0.00 0.00 0.00 50 1008.5
20260504183052 5 337 22.5 41.8 0.00 0.00 0.00 52 1008.5
20260504181510 6 339 17.7 38.6 0.00 0.00 0.00 57 1008.5
20260504180023 5 327 22.5 30.6 0.00 0.00 0.00 57 1008.6
20260504174540 5 323 24.1 40.2 0.00 0.00 0.00 58 1008.6
20260504173044 4 310 25.7 35.4 0.00 0.00 0.00 61 1008.5
20260504171502 4 346 24.1 32.2 0.00 0.00 0.00 64 1008.5
20260504140106 2 338 20.9 30.6 0.00 0.00 0.00 71 1007.9
20260504081509 1 334 9.7 14.5 0.00 0.00 0.00 76 1004.8